星链-1305 (STARLINK-1305 )

导读 | 星芒AI

STARLINK-1305 是 SpaceX Starlink 项目中的第 1305 颗卫星,属于其低轨卫星互联网星座的一部分。该卫星于 2023 年发射,旨在为全球用户提供高速、低延迟的互联网服务。它运行在约 550 公里的轨道高度,采用先进的通信技术,支持宽带接入。Starlink 卫星群致力于改善偏远地区的网络覆盖,推动全球互联网普及。STARLINK-1305 的部署进一步增强了 Starlink 网络的稳定性和服务能力。

基本信息
目录编号:
45377
目录名称:
STARLINK-1305
国际标识:
2020-019T
轨道中心:
EARTH
卫星名称:
星链-1305
卫星全名:
星链-1305 (STARLINK-1305 )
卫星状态:
在轨 (已飞行2051 天)
发射日期:
2020-03-18 UTC
国别 :
美国 (US)
星等 :
--
轨道信息
数据来源 国际轨道数据
星历时间: 2025-10-28T21:19:23+0800
1天前
查看轨道信息
半长轴: 6850.393km
偏心率: 0.0001218
轨道倾角: 53.054°
近地点辐角 83.751°
升交点赤经 38.005°
平近点角 276.363°
近地点: 471.423km
远地点: 473.093km
周期: 94.044分钟
每日圈数: 15.311918
详细信息
固有亮度:
5
最大亮度:
2.5
卫星平台:
Starlink V1.0
覆盖范围:
全球
运营商:
太空探索技术公司
运营商所在国:
美国
制造商(研发单位):
太空探索技术公司
制造商所在国:
美国
使用方式:
暂无
卫星简介
星链(Starlink)计划是由太空探索技术公司(SpaceX)提出的一个巨型低轨卫星互联网星座项目,计划在2019年至2024年间在太空搭建由约1.2万颗卫星组成的“星链”网络,其中1584颗将部署在地球上空550千米处的近地轨道,并从2020年开始工作。该卫星仍在工作。
2D轨道图
3D轨道图
轨道高度分析图
轨道倾角分析图
轨道综合分析图
查看轨道综合分析图